Time,TemperatureF,DewpointF,PressureIn,WindDirection,WindDirectionDegrees,WindSpeedMPH,WindSpeedGustMPH,Humidity,HourlyPrecipIn,Conditions,Clouds,dailyrainin,SoftwareType,DateUTC
2013-06-09 00:01:00,58.3,57.2,30.02,NW,325,0.0,0.0,96,0.00,,,0.01,Wunderground v.1.15,2013-06-09 04:01:00,
2013-06-09 00:02:00,58.3,57.2,30.02,NW,325,0.0,0.0,96,0.00,,,0.01,Wunderground v.1.15,2013-06-09 04:02:00,
2013-06-09 00:03:00,58.3,57.2,30.02,NW,325,0.0,0.0,96,0.00,,,0.01,Wunderground v.1.15,2013-06-09 04:03:00,
2013-06-09 00:08:00,58.3,57.2,30.02,NW,325,0.0,0.0,96,0.00,,,0.01,Wunderground v.1.15,2013-06-09 04:08:00,
2013-06-09 00:13:00,58.3,57.2,30.01,NW,325,0.0,0.0,96,0.00,,,0.01,Wunderground v.1.15,2013-06-09 04:13:00,
2013-06-09 00:18:00,58.3,57.2,30.01,NW,325,0.0,0.0,96,0.00,,,0.01,Wunderground v.1.15,2013-06-09 04:18:00,
2013-06-09 00:23:00,58.3,57.2,30.01,NW,325,0.0,0.0,96,0.00,,,0.01,Wunderground v.1.15,2013-06-09 04:23:00,
2013-06-09 00:29:00,58.3,57.2,30.02,NW,325,0.0,0.0,96,0.00,,,0.01,Wunderground v.1.15,2013-06-09 04:29:00,
2013-06-09 00:35:00,58.3,57.2,30.02,NW,325,0.0,0.0,96,0.00,,,0.01,Wunderground v.1.15,2013-06-09 04:35:00,
2013-06-09 00:41:00,58.3,57.2,30.02,NW,325,0.0,0.0,96,0.00,,,0.01,Wunderground v.1.15,2013-06-09 04:41:00,
2013-06-09 00:46:00,58.3,57.5,30.01,NW,325,0.0,0.0,97,0.00,,,0.01,Wunderground v.1.15,2013-06-09 04:46:00,
2013-06-09 00:51:00,58.4,57.6,30.01,NW,325,0.0,0.0,97,0.00,,,0.01,Wunderground v.1.15,2013-06-09 04:51:00,
2013-06-09 00:57:00,58.4,57.6,30.01,NW,325,0.0,0.0,97,0.00,,,0.01,Wunderground v.1.15,2013-06-09 04:57:00,
2013-06-09 01:02:00,58.4,57.6,30.01,NW,325,0.0,1.0,97,0.00,,,0.01,Wunderground v.1.15,2013-06-09 05:02:00,
2013-06-09 01:08:00,58.4,57.6,30.01,NW,325,0.0,1.0,97,0.00,,,0.01,Wunderground v.1.15,2013-06-09 05:08:00,
2013-06-09 01:14:00,58.4,57.6,30.01,NW,325,0.0,2.0,97,0.00,,,0.01,Wunderground v.1.15,2013-06-09 05:14:00,
2013-06-09 01:20:00,58.4,57.6,30.01,NW,325,0.0,0.0,97,0.00,,,0.01,Wunderground v.1.15,2013-06-09 05:20:00,
2013-06-09 01:25:00,58.4,57.6,30.01,NW,325,0.0,0.0,97,0.00,,,0.01,Wunderground v.1.15,2013-06-09 05:25:00,
2013-06-09 01:31:00,58.3,57.5,30.02,NW,325,0.0,0.0,97,0.00,,,0.01,Wunderground v.1.15,2013-06-09 05:31:00,
2013-06-09 01:37:00,58.3,57.5,30.02,NW,325,0.0,0.0,97,0.00,,,0.01,Wunderground v.1.15,2013-06-09 05:37:00,
2013-06-09 01:42:00,58.3,57.5,30.03,NW,325,0.0,0.0,97,0.00,,,0.02,Wunderground v.1.15,2013-06-09 05:42:00,
2013-06-09 01:47:00,58.3,57.5,30.03,NW,325,0.0,0.0,97,0.00,,,0.02,Wunderground v.1.15,2013-06-09 05:47:00,
2013-06-09 01:52:00,58.3,57.5,30.03,NW,325,0.0,0.0,97,0.00,,,0.02,Wunderground v.1.15,2013-06-09 05:52:00,
2013-06-09 01:57:00,58.3,57.5,30.03,NW,325,0.0,0.0,97,0.00,,,0.02,Wunderground v.1.15,2013-06-09 05:57:00,
2013-06-09 02:02:00,58.1,57.3,30.03,NW,325,1.0,3.0,97,0.00,,,0.02,Wunderground v.1.15,2013-06-09 06:02:00,
2013-06-09 02:07:00,58.1,57.3,30.03,NW,325,2.0,3.0,97,0.00,,,0.02,Wunderground v.1.15,2013-06-09 06:07:00,
2013-06-09 02:12:00,58.1,57.3,30.02,NW,325,0.0,1.0,97,0.00,,,0.02,Wunderground v.1.15,2013-06-09 06:12:00,
2013-06-09 02:17:00,58.1,57.3,30.02,NW,325,2.0,4.0,97,0.00,,,0.02,Wunderground v.1.15,2013-06-09 06:17:00,
2013-06-09 02:22:00,58.1,57.5,30.02,NW,325,0.0,2.0,98,0.00,,,0.02,Wunderground v.1.15,2013-06-09 06:22:00,
2013-06-09 02:27:00,58.1,57.5,30.02,NW,325,0.0,2.0,98,0.00,,,0.02,Wunderground v.1.15,2013-06-09 06:27:00,
2013-06-09 02:32:00,58.1,57.5,30.02,NW,325,0.0,2.0,98,0.00,,,0.02,Wunderground v.1.15,2013-06-09 06:32:00,
2013-06-09 02:37:00,58.1,57.5,30.02,NW,325,0.0,2.0,98,0.00,,,0.02,Wunderground v.1.15,2013-06-09 06:37:00,
2013-06-09 02:42:00,58.1,57.5,30.03,NW,325,0.0,0.0,98,0.00,,,0.02,Wunderground v.1.15,2013-06-09 06:42:00,
2013-06-09 02:47:00,58.0,57.4,30.03,NW,325,0.0,0.0,98,0.00,,,0.02,Wunderground v.1.15,2013-06-09 06:47:00,
2013-06-09 02:52:00,57.8,57.2,30.03,NW,325,0.0,0.0,98,0.00,,,0.02,Wunderground v.1.15,2013-06-09 06:52:00,
2013-06-09 02:57:00,57.8,57.2,30.02,NW,325,0.0,0.0,98,0.00,,,0.02,Wunderground v.1.15,2013-06-09 06:57:00,
2013-06-09 03:02:00,57.8,57.2,30.02,NW,325,0.0,1.0,98,0.00,,,0.02,Wunderground v.1.15,2013-06-09 07:02:00,
2013-06-09 03:07:00,57.8,57.2,30.02,NW,325,0.0,2.0,98,0.00,,,0.02,Wunderground v.1.15,2013-06-09 07:07:00,
2013-06-09 03:12:00,57.8,57.2,30.02,NW,325,0.0,0.0,98,0.00,,,0.02,Wunderground v.1.15,2013-06-09 07:12:00,
2013-06-09 03:17:00,57.8,57.2,30.02,NW,325,0.0,1.0,98,0.00,,,0.02,Wunderground v.1.15,2013-06-09 07:17:00,
2013-06-09 03:22:00,58.0,57.4,30.02,NW,325,0.0,3.0,98,0.00,,,0.02,Wunderground v.1.15,2013-06-09 07:22:00,
2013-06-09 03:27:00,58.0,57.4,30.02,NW,325,0.0,3.0,98,0.00,,,0.02,Wunderground v.1.15,2013-06-09 07:27:00,
2013-06-09 03:32:00,58.0,57.4,30.02,NW,325,0.0,2.0,98,0.00,,,0.02,Wunderground v.1.15,2013-06-09 07:32:00,
2013-06-09 03:37:00,58.0,57.4,30.02,NNW,329,2.0,4.0,98,0.00,,,0.02,Wunderground v.1.15,2013-06-09 07:37:00,
2013-06-09 03:43:00,58.0,57.4,30.02,NNW,329,0.0,2.0,98,0.00,,,0.02,Wunderground v.1.15,2013-06-09 07:43:00,
2013-06-09 03:48:00,58.0,57.4,30.02,NNW,329,0.0,2.0,98,0.00,,,0.02,Wunderground v.1.15,2013-06-09 07:48:00,
2013-06-09 03:53:00,57.8,57.2,30.02,NNW,329,0.0,0.0,98,0.00,,,0.02,Wunderground v.1.15,2013-06-09 07:53:00,
2013-06-09 03:58:00,57.8,57.2,30.03,NNW,329,0.0,3.0,98,0.00,,,0.02,Wunderground v.1.15,2013-06-09 07:58:00,
2013-06-09 04:03:00,57.8,57.2,30.03,NNW,329,0.0,1.0,98,0.00,,,0.02,Wunderground v.1.15,2013-06-09 08:03:00,
2013-06-09 04:08:00,57.8,57.2,30.03,NNW,329,0.0,1.0,98,0.00,,,0.02,Wunderground v.1.15,2013-06-09 08:08:00,
2013-06-09 04:13:00,57.6,57.0,30.03,NNW,329,4.0,4.0,98,0.00,,,0.02,Wunderground v.1.15,2013-06-09 08:13:00,
2013-06-09 04:18:00,57.8,57.2,30.03,NNW,329,0.0,4.0,98,0.00,,,0.02,Wunderground v.1.15,2013-06-09 08:18:00,
2013-06-09 04:23:00,57.8,57.2,30.03,NNW,329,0.0,1.0,98,0.00,,,0.02,Wunderground v.1.15,2013-06-09 08:23:00,
2013-06-09 04:28:00,57.8,57.2,30.03,NNW,329,2.0,2.0,98,0.00,,,0.02,Wunderground v.1.15,2013-06-09 08:28:00,
2013-06-09 04:33:00,57.6,57.0,30.03,NNW,329,0.0,0.0,98,0.00,,,0.02,Wunderground v.1.15,2013-06-09 08:33:00,
2013-06-09 04:38:00,57.8,57.2,30.03,NNW,329,0.0,2.0,98,0.00,,,0.02,Wunderground v.1.15,2013-06-09 08:38:00,
2013-06-09 04:43:00,57.8,57.2,30.03,North,355,0.0,4.0,98,0.00,,,0.00,Wunderground v.1.15,2013-06-09 08:43:00,
2013-06-09 04:48:00,57.8,57.2,30.03,North,355,1.0,4.0,98,0.00,,,0.00,Wunderground v.1.15,2013-06-09 08:48:00,
2013-06-09 04:53:00,57.8,57.2,30.03,North,355,0.0,2.0,98,0.00,,,0.00,Wunderground v.1.15,2013-06-09 08:53:00,
2013-06-09 04:58:00,57.6,57.0,30.03,North,355,0.0,2.0,98,0.00,,,0.00,Wunderground v.1.15,2013-06-09 08:58:00,
2013-06-09 05:03:00,57.6,57.0,30.03,North,355,3.0,4.0,98,0.00,,,0.00,Wunderground v.1.15,2013-06-09 09:03:00,
2013-06-09 05:08:00,57.8,57.2,30.03,North,355,0.0,4.0,98,0.00,,,0.00,Wunderground v.1.15,2013-06-09 09:08:00,
2013-06-09 05:13:00,57.8,57.2,30.04,North,355,2.0,3.0,98,0.00,,,0.00,Wunderground v.1.15,2013-06-09 09:13:00,
2013-06-09 05:18:00,57.8,57.2,30.04,North,360,1.0,3.0,98,0.00,,,0.00,Wunderground v.1.15,2013-06-09 09:18:00,
2013-06-09 05:23:00,57.8,57.2,30.04,North,360,0.0,2.0,98,0.00,,,0.00,Wunderground v.1.15,2013-06-09 09:23:00,
2013-06-09 05:28:00,58.0,57.4,30.05,North,360,0.0,3.0,98,0.00,,,0.00,Wunderground v.1.15,2013-06-09 09:28:00,
2013-06-09 05:33:00,58.0,57.4,30.05,North,360,0.0,2.0,98,0.00,,,0.00,Wunderground v.1.15,2013-06-09 09:33:00,
2013-06-09 05:38:00,57.8,57.2,30.05,North,360,0.0,2.0,98,0.00,,,0.00,Wunderground v.1.15,2013-06-09 09:38:00,
2013-06-09 05:43:00,57.8,57.2,30.05,North,360,2.0,2.0,98,0.00,,,0.00,Wunderground v.1.15,2013-06-09 09:43:00,
2013-06-09 05:48:00,57.8,57.2,30.05,North,360,0.0,2.0,98,0.00,,,0.00,Wunderground v.1.15,2013-06-09 09:48:00,
2013-06-09 05:53:00,57.8,57.2,30.05,North,360,0.0,0.0,98,0.00,,,0.00,Wunderground v.1.15,2013-06-09 09:53:00,
2013-06-09 05:59:00,57.8,57.5,30.05,NNE,22,0.0,5.0,99,0.00,,,0.00,Wunderground v.1.15,2013-06-09 09:59:00,
2013-06-09 06:04:00,57.8,57.5,30.05,NNE,22,3.0,4.0,99,0.00,,,0.00,Wunderground v.1.15,2013-06-09 10:04:00,
2013-06-09 06:09:00,57.8,57.5,30.05,NNE,33,1.0,4.0,99,0.00,,,0.00,Wunderground v.1.15,2013-06-09 10:09:00,
2013-06-09 06:14:00,58.0,57.7,30.05,NE,50,0.0,5.0,99,0.00,,,0.00,Wunderground v.1.15,2013-06-09 10:14:00,
2013-06-09 06:19:00,58.0,57.7,30.05,NE,52,2.0,5.0,99,0.00,,,0.00,Wunderground v.1.15,2013-06-09 10:19:00,
2013-06-09 06:24:00,58.1,57.8,30.05,NE,52,0.0,2.0,99,0.00,,,0.00,Wunderground v.1.15,2013-06-09 10:24:00,
2013-06-09 06:29:00,58.3,58.0,30.05,ENE,73,4.0,6.0,99,0.00,,,0.00,Wunderground v.1.15,2013-06-09 10:29:00,
2013-06-09 06:34:00,58.1,57.8,30.05,East,90,0.0,6.0,99,0.00,,,0.00,Wunderground v.1.15,2013-06-09 10:34:00,
2013-06-09 06:39:00,58.3,58.0,30.05,East,90,0.0,6.0,99,0.00,,,0.00,Wunderground v.1.15,2013-06-09 10:39:00,
2013-06-09 06:44:00,58.3,58.0,30.06,East,90,0.0,4.0,99,0.00,,,0.00,Wunderground v.1.15,2013-06-09 10:44:00,
2013-06-09 06:49:00,58.4,58.1,30.06,East,92,1.0,4.0,99,0.00,,,0.00,Wunderground v.1.15,2013-06-09 10:49:00,
2013-06-09 06:54:00,58.4,58.1,30.06,SE,140,5.0,11.0,99,0.00,,,0.00,Wunderground v.1.15,2013-06-09 10:54:00,
2013-06-09 06:59:00,58.4,57.8,30.05,SE,145,5.0,11.0,98,0.00,,,0.00,Wunderground v.1.15,2013-06-09 10:59:00,
2013-06-09 07:04:00,58.4,57.8,30.05,SSE,148,4.0,5.0,98,0.00,,,0.00,Wunderground v.1.15,2013-06-09 11:04:00,
2013-06-09 07:09:00,58.4,57.8,30.05,SSE,150,3.0,6.0,98,0.00,,,0.00,Wunderground v.1.15,2013-06-09 11:09:00,
2013-06-09 07:14:00,58.6,58.0,30.06,SSE,152,5.0,6.0,98,0.00,,,0.00,Wunderground v.1.15,2013-06-09 11:14:00,
2013-06-09 07:19:00,58.7,58.1,30.06,SSE,151,0.0,6.0,98,0.00,,,0.00,Wunderground v.1.15,2013-06-09 11:19:00,
2013-06-09 07:24:00,58.7,58.1,30.06,SSE,151,1.0,4.0,98,0.00,,,0.00,Wunderground v.1.15,2013-06-09 11:24:00,
2013-06-09 07:29:00,58.7,58.1,30.07,SSE,149,4.0,5.0,98,0.00,,,0.00,Wunderground v.1.15,2013-06-09 11:29:00,
2013-06-09 07:34:00,58.7,58.1,30.07,SSE,147,3.0,10.0,98,0.00,,,0.00,Wunderground v.1.15,2013-06-09 11:34:00,
2013-06-09 07:39:00,58.9,58.3,30.07,SSE,147,3.0,10.0,98,0.00,,,0.00,Wunderground v.1.15,2013-06-09 11:39:00,
2013-06-09 07:44:00,59.0,58.4,30.08,SSE,148,2.0,6.0,98,0.00,,,0.00,Wunderground v.1.15,2013-06-09 11:44:00,
2013-06-09 07:49:00,59.2,58.6,30.08,SSE,148,0.0,6.0,98,0.00,,,0.00,Wunderground v.1.15,2013-06-09 11:49:00,
2013-06-09 07:54:00,59.5,58.9,30.08,SSE,148,4.0,5.0,98,0.00,,,0.00,Wunderground v.1.15,2013-06-09 11:54:00,
2013-06-09 07:59:00,59.9,59.3,30.07,SSE,149,0.0,6.0,98,0.00,,,0.00,Wunderground v.1.15,2013-06-09 11:59:00,
2013-06-09 08:04:00,60.1,59.2,30.07,SSE,149,0.0,5.0,97,0.00,,,0.00,Wunderground v.1.15,2013-06-09 12:04:00,
2013-06-09 08:09:00,60.2,59.1,30.07,SSE,150,4.0,5.0,96,0.00,,,0.00,Wunderground v.1.15,2013-06-09 12:09:00,
2013-06-09 08:14:00,60.2,58.8,30.08,SSE,150,0.0,5.0,95,0.00,,,0.00,Wunderground v.1.15,2013-06-09 12:14:00,
2013-06-09 08:20:00,60.2,58.8,30.08,SSE,153,2.0,2.0,95,0.00,,,0.00,Wunderground v.1.15,2013-06-09 12:20:00,
2013-06-09 08:25:00,60.4,59.0,30.08,SSE,152,3.0,5.0,95,0.00,,,0.00,Wunderground v.1.15,2013-06-09 12:25:00,
2013-06-09 08:30:00,60.4,58.7,30.09,SSE,155,0.0,3.0,94,0.00,,,0.00,Wunderground v.1.15,2013-06-09 12:30:00,
2013-06-09 08:35:00,60.7,58.7,30.09,SE,144,4.0,7.0,93,0.00,,,0.00,Wunderground v.1.15,2013-06-09 12:35:00,
2013-06-09 08:40:00,60.9,58.9,30.09,SSE,150,5.0,5.0,93,0.00,,,0.00,Wunderground v.1.15,2013-06-09 12:40:00,
2013-06-09 08:45:00,60.9,58.6,30.09,SSE,152,5.0,9.0,92,0.00,,,0.00,Wunderground v.1.15,2013-06-09 12:45:00,
2013-06-09 08:50:00,61.0,58.4,30.09,SSE,165,2.0,3.0,91,0.00,,,0.00,Wunderground v.1.15,2013-06-09 12:50:00,
2013-06-09 08:55:00,61.2,58.6,30.09,South,171,3.0,7.0,91,0.00,,,0.00,Wunderground v.1.15,2013-06-09 12:55:00,
2013-06-09 09:00:00,61.3,58.3,30.09,SSE,149,2.0,3.0,90,0.00,,,0.00,Wunderground v.1.15,2013-06-09 13:00:00,
2013-06-09 09:05:00,61.6,58.0,30.09,SSE,161,9.0,9.0,88,0.00,,,0.00,Wunderground v.1.15,2013-06-09 13:05:00,
2013-06-09 09:10:00,61.8,58.2,30.09,SSE,161,2.0,4.0,88,0.00,,,0.00,Wunderground v.1.15,2013-06-09 13:10:00,
2013-06-09 09:15:00,62.0,57.8,30.09,SE,145,5.0,12.0,86,0.00,,,0.00,Wunderground v.1.15,2013-06-09 13:15:00,
2013-06-09 09:20:00,62.1,57.9,30.09,SSE,165,0.0,5.0,86,0.00,,,0.00,Wunderground v.1.15,2013-06-09 13:20:00,
2013-06-09 09:25:00,62.4,58.2,30.09,South,169,6.0,9.0,86,0.00,,,0.00,Wunderground v.1.15,2013-06-09 13:25:00,
2013-06-09 09:30:00,62.4,57.8,30.09,SSE,164,6.0,6.0,85,0.00,,,0.00,Wunderground v.1.15,2013-06-09 13:30:00,
2013-06-09 09:35:00,62.7,58.1,30.09,SSE,158,2.0,11.0,85,0.00,,,0.00,Wunderground v.1.15,2013-06-09 13:35:00,
2013-06-09 09:40:00,63.1,58.5,30.09,SSE,159,4.0,5.0,85,0.00,,,0.00,Wunderground v.1.15,2013-06-09 13:40:00,
2013-06-09 09:46:00,63.4,58.1,30.09,SSE,157,4.0,9.0,83,0.00,,,0.00,Wunderground v.1.15,2013-06-09 13:46:00,
2013-06-09 09:51:00,63.7,58.1,30.09,SSE,157,0.0,5.0,82,0.00,,,0.00,Wunderground v.1.15,2013-06-09 13:51:00,
2013-06-09 09:56:00,63.7,58.1,30.09,SSE,155,0.0,9.0,82,0.00,,,0.00,Wunderground v.1.15,2013-06-09 13:56:00,
2013-06-09 10:01:00,64.0,58.4,30.09,SSE,155,4.0,4.0,82,0.00,,,0.00,Wunderground v.1.15,2013-06-09 14:01:00,
2013-06-09 10:06:00,64.2,58.6,30.09,SSE,155,1.0,5.0,82,0.00,,,0.00,Wunderground v.1.15,2013-06-09 14:06:00,
2013-06-09 10:11:00,64.2,58.2,30.09,SSE,156,0.0,5.0,81,0.00,,,0.00,Wunderground v.1.15,2013-06-09 14:11:00,
2013-06-09 10:16:00,64.3,58.7,30.09,SSE,156,1.0,5.0,82,0.00,,,0.00,Wunderground v.1.15,2013-06-09 14:16:00,
2013-06-09 10:21:00,64.5,58.2,30.09,SSE,156,2.0,4.0,80,0.00,,,0.00,Wunderground v.1.15,2013-06-09 14:21:00,
2013-06-09 10:26:00,64.5,58.2,30.09,SSE,156,0.0,4.0,80,0.00,,,0.00,Wunderground v.1.15,2013-06-09 14:26:00,
2013-06-09 10:32:00,64.8,58.5,30.09,SSE,156,0.0,4.0,80,0.00,,,0.00,Wunderground v.1.15,2013-06-09 14:32:00,
2013-06-09 10:37:00,65.0,58.7,30.09,SSE,156,5.0,6.0,80,0.00,,,0.00,Wunderground v.1.15,2013-06-09 14:37:00,
2013-06-09 10:42:00,64.8,58.5,30.09,SSE,156,2.0,3.0,80,0.00,,,0.00,Wunderground v.1.15,2013-06-09 14:42:00,
2013-06-09 10:47:00,64.8,58.5,30.09,SSE,156,4.0,5.0,80,0.00,,,0.00,Wunderground v.1.15,2013-06-09 14:47:00,
2013-06-09 10:52:00,65.0,58.7,30.09,SSE,155,0.0,7.0,80,0.00,,,0.00,Wunderground v.1.15,2013-06-09 14:52:00,
2013-06-09 10:57:00,65.3,59.0,30.09,SE,144,5.0,9.0,80,0.00,,,0.00,Wunderground v.1.15,2013-06-09 14:57:00,
2013-06-09 11:02:00,65.6,59.3,30.09,South,171,0.0,11.0,80,0.00,,,0.00,Wunderground v.1.15,2013-06-09 15:02:00,
2013-06-09 11:07:00,66.0,59.3,30.09,South,169,0.0,11.0,79,0.00,,,0.00,Wunderground v.1.15,2013-06-09 15:07:00,
2013-06-09 11:12:00,66.3,59.2,30.09,SSE,164,3.0,5.0,78,0.00,,,0.00,Wunderground v.1.15,2013-06-09 15:12:00,
2013-06-09 11:17:00,66.6,59.9,30.09,SSE,163,1.0,5.0,79,0.00,,,0.00,Wunderground v.1.15,2013-06-09 15:17:00,
2013-06-09 11:22:00,66.6,59.5,30.09,SSE,162,0.0,5.0,78,0.00,,,0.00,Wunderground v.1.15,2013-06-09 15:22:00,
2013-06-09 11:27:00,66.4,59.3,30.09,SSE,162,0.0,6.0,78,0.00,,,0.00,Wunderground v.1.15,2013-06-09 15:27:00,
2013-06-09 11:32:00,66.4,59.0,30.09,SSE,162,1.0,4.0,77,0.00,,,0.00,Wunderground v.1.15,2013-06-09 15:32:00,
2013-06-09 11:37:00,66.6,58.8,30.09,SSE,162,0.0,4.0,76,0.00,,,0.00,Wunderground v.1.15,2013-06-09 15:37:00,
2013-06-09 11:42:00,66.8,59.4,30.09,SSE,162,0.0,4.0,77,0.00,,,0.00,Wunderground v.1.15,2013-06-09 15:42:00,
2013-06-09 11:47:00,66.9,58.3,30.09,SSE,162,0.0,4.0,74,0.00,,,0.00,Wunderground v.1.15,2013-06-09 15:47:00,
2013-06-09 11:52:00,67.3,58.3,30.09,SSE,162,0.0,2.0,73,0.00,,,0.00,Wunderground v.1.15,2013-06-09 15:52:00,
2013-06-09 11:57:00,67.8,58.4,30.09,SSE,162,0.0,2.0,72,0.00,,,0.00,Wunderground v.1.15,2013-06-09 15:57:00,
2013-06-09 12:02:00,68.3,58.9,30.09,SSE,162,0.0,3.0,72,0.00,,,0.00,Wunderground v.1.15,2013-06-09 16:02:00,
2013-06-09 12:07:00,69.1,58.1,30.09,South,177,0.0,6.0,68,0.00,,,0.00,Wunderground v.1.15,2013-06-09 16:07:00,
2013-06-09 12:12:00,69.8,56.6,30.09,West,267,0.0,6.0,63,0.00,,,0.00,Wunderground v.1.15,2013-06-09 16:12:00,
2013-06-09 12:17:00,70.4,56.8,30.09,WSW,257,3.0,6.0,62,0.00,,,0.00,Wunderground v.1.15,2013-06-09 16:17:00,
2013-06-09 12:22:00,70.1,56.0,30.09,West,267,0.0,5.0,61,0.00,,,0.00,Wunderground v.1.15,2013-06-09 16:22:00,
2013-06-09 12:27:00,70.1,56.5,30.09,West,259,0.0,5.0,62,0.00,,,0.00,Wunderground v.1.15,2013-06-09 16:27:00,
2013-06-09 12:32:00,69.6,56.0,30.09,WSW,258,2.0,5.0,62,0.00,,,0.00,Wunderground v.1.15,2013-06-09 16:32:00,
2013-06-09 12:37:00,69.4,56.3,30.09,WSW,257,0.0,6.0,63,0.00,,,0.00,Wunderground v.1.15,2013-06-09 16:37:00,
2013-06-09 12:43:00,69.8,57.1,30.08,WSW,254,3.0,4.0,64,0.00,,,0.00,Wunderground v.1.15,2013-06-09 16:43:00,
2013-06-09 12:48:00,70.3,56.2,30.08,SW,226,3.0,6.0,61,0.00,,,0.00,Wunderground v.1.15,2013-06-09 16:48:00,
2013-06-09 12:53:00,69.8,56.6,30.08,SW,226,0.0,3.0,63,0.00,,,0.00,Wunderground v.1.15,2013-06-09 16:53:00,
2013-06-09 12:58:00,69.8,56.6,30.08,SW,226,1.0,4.0,63,0.00,,,0.00,Wunderground v.1.15,2013-06-09 16:58:00,
2013-06-09 13:03:00,70.6,57.8,30.08,SW,226,2.0,4.0,64,0.00,,,0.00,Wunderground v.1.15,2013-06-09 17:03:00,
2013-06-09 13:08:00,70.9,57.7,30.08,SSW,196,5.0,5.0,63,0.00,,,0.00,Wunderground v.1.15,2013-06-09 17:08:00,
2013-06-09 13:13:00,70.9,57.2,30.08,SSE,168,0.0,4.0,62,0.00,,,0.00,Wunderground v.1.15,2013-06-09 17:13:00,
2013-06-09 13:19:00,72.1,56.5,30.08,SSE,168,0.0,4.0,58,0.00,,,0.00,Wunderground v.1.15,2013-06-09 17:19:00,
2013-06-09 13:24:00,72.5,56.4,30.08,SSW,205,2.0,7.0,57,0.00,,,0.00,Wunderground v.1.15,2013-06-09 17:24:00,
2013-06-09 13:29:00,72.1,55.5,30.07,SSW,203,2.0,7.0,56,0.00,,,0.00,Wunderground v.1.15,2013-06-09 17:29:00,
2013-06-09 13:34:00,71.8,57.6,30.07,SSW,203,2.0,3.0,61,0.00,,,0.00,Wunderground v.1.15,2013-06-09 17:34:00,
2013-06-09 13:39:00,72.3,55.7,30.07,SSW,203,3.0,5.0,56,0.00,,,0.00,Wunderground v.1.15,2013-06-09 17:39:00,
2013-06-09 13:44:00,72.0,55.4,30.07,South,189,1.0,5.0,56,0.00,,,0.00,Wunderground v.1.15,2013-06-09 17:44:00,
2013-06-09 13:49:00,71.5,55.0,30.07,South,182,1.0,6.0,56,0.00,,,0.00,Wunderground v.1.15,2013-06-09 17:49:00,
2013-06-09 13:54:00,72.0,55.4,30.07,South,182,0.0,5.0,56,0.00,,,0.00,Wunderground v.1.15,2013-06-09 17:54:00,
2013-06-09 13:59:00,74.0,58.3,30.06,South,180,1.0,5.0,58,0.00,,,0.00,Wunderground v.1.15,2013-06-09 17:59:00,
2013-06-09 14:04:00,72.8,53.1,30.06,SE,143,0.0,10.0,50,0.00,,,0.00,Wunderground v.1.15,2013-06-09 18:04:00,
2013-06-09 14:09:00,72.7,53.5,30.06,SE,143,0.0,10.0,51,0.00,,,0.00,Wunderground v.1.15,2013-06-09 18:09:00,
2013-06-09 14:14:00,73.3,55.1,30.06,SE,143,1.0,2.0,53,0.00,,,0.00,Wunderground v.1.15,2013-06-09 18:14:00,
2013-06-09 14:19:00,73.9,55.2,30.06,SE,143,0.0,2.0,52,0.00,,,0.00,Wunderground v.1.15,2013-06-09 18:19:00,
2013-06-09 14:24:00,73.9,54.6,30.06,SE,146,0.0,4.0,51,0.00,,,0.00,Wunderground v.1.15,2013-06-09 18:24:00,
2013-06-09 14:29:00,74.0,55.8,30.06,SE,146,0.0,4.0,53,0.00,,,0.00,Wunderground v.1.15,2013-06-09 18:29:00,
2013-06-09 14:35:00,74.6,54.2,30.06,SE,146,0.0,1.0,49,0.00,,,0.00,Wunderground v.1.15,2013-06-09 18:35:00,
2013-06-09 14:40:00,75.6,56.7,30.06,SE,146,0.0,0.0,52,0.00,,,0.00,Wunderground v.1.15,2013-06-09 18:40:00,
2013-06-09 14:45:00,76.5,56.5,30.06,SE,146,0.0,1.0,50,0.00,,,0.00,Wunderground v.1.15,2013-06-09 18:45:00,
2013-06-09 14:50:00,75.4,53.2,30.06,SE,146,0.0,0.0,46,0.00,,,0.00,Wunderground v.1.15,2013-06-09 18:50:00,
2013-06-09 14:56:00,76.1,56.7,30.06,SE,146,0.0,2.0,51,0.00,,,0.00,Wunderground v.1.15,2013-06-09 18:56:00,
2013-06-09 15:01:00,76.0,54.3,30.06,SE,143,0.0,2.0,47,0.00,,,0.00,Wunderground v.1.15,2013-06-09 19:01:00,
2013-06-09 15:06:00,75.4,54.3,30.06,SE,139,0.0,4.0,48,0.00,,,0.00,Wunderground v.1.15,2013-06-09 19:06:00,
2013-06-09 15:11:00,75.3,54.3,30.06,SE,139,0.0,0.0,48,0.00,,,0.00,Wunderground v.1.15,2013-06-09 19:11:00,
2013-06-09 15:16:00,76.0,56.6,30.06,SE,139,0.0,1.0,51,0.00,,,0.00,Wunderground v.1.15,2013-06-09 19:16:00,
2013-06-09 15:21:00,76.5,53.6,30.06,SE,129,2.0,5.0,45,0.00,,,0.00,Wunderground v.1.15,2013-06-09 19:21:00,
2013-06-09 15:26:00,76.3,55.2,30.06,SE,128,0.0,5.0,48,0.00,,,0.00,Wunderground v.1.15,2013-06-09 19:26:00,
2013-06-09 15:31:00,77.0,54.0,30.06,ESE,119,0.0,1.0,45,0.00,,,0.00,Wunderground v.1.15,2013-06-09 19:31:00,
2013-06-09 15:36:00,77.2,53.6,30.06,ESE,119,0.0,3.0,44,0.00,,,0.00,Wunderground v.1.15,2013-06-09 19:36:00,
2013-06-09 15:41:00,78.6,56.7,30.06,ESE,118,1.0,2.0,47,0.00,,,0.00,Wunderground v.1.15,2013-06-09 19:41:00,
2013-06-09 15:46:00,79.4,56.2,30.06,ESE,112,1.0,4.0,45,0.00,,,0.00,Wunderground v.1.15,2013-06-09 19:46:00,
2013-06-09 15:51:00,79.8,54.7,30.06,ESE,107,0.0,0.0,42,0.00,,,0.00,Wunderground v.1.15,2013-06-09 19:51:00,
2013-06-09 15:56:00,80.7,54.1,30.06,ESE,107,0.0,1.0,40,0.00,,,0.00,Wunderground v.1.15,2013-06-09 19:56:00,
2013-06-09 16:01:00,80.7,55.5,30.06,East,96,2.0,5.0,42,0.00,,,0.00,Wunderground v.1.15,2013-06-09 20:01:00,
2013-06-09 16:06:00,80.7,53.4,30.06,ENE,65,0.0,7.0,39,0.00,,,0.00,Wunderground v.1.15,2013-06-09 20:06:00,
2013-06-09 16:11:00,80.7,55.5,30.06,ENE,65,0.0,1.0,42,0.00,,,0.00,Wunderground v.1.15,2013-06-09 20:11:00,
2013-06-09 16:17:00,80.7,54.8,30.06,ENE,65,0.0,3.0,41,0.00,,,0.00,Wunderground v.1.15,2013-06-09 20:17:00,
2013-06-09 16:22:00,79.9,55.4,30.06,ENE,63,0.0,6.0,43,0.00,,,0.00,Wunderground v.1.15,2013-06-09 20:22:00,
2013-06-09 16:27:00,79.2,54.8,30.06,ENE,63,0.0,6.0,43,0.00,,,0.00,Wunderground v.1.15,2013-06-09 20:27:00,
2013-06-09 16:32:00,79.2,52.8,30.06,ENE,63,0.0,1.0,40,0.00,,,0.00,Wunderground v.1.15,2013-06-09 20:32:00,
2013-06-09 16:37:00,79.4,56.2,30.06,ENE,63,0.0,1.0,45,0.00,,,0.00,Wunderground v.1.15,2013-06-09 20:37:00,
2013-06-09 16:42:00,79.6,53.1,30.06,ENE,63,0.0,1.0,40,0.00,,,0.00,Wunderground v.1.15,2013-06-09 20:42:00,
2013-06-09 16:47:00,78.6,53.6,30.06,ENE,63,0.0,1.0,42,0.00,,,0.00,Wunderground v.1.15,2013-06-09 20:47:00,
2013-06-09 16:52:00,79.2,54.8,30.06,ENE,63,0.0,0.0,43,0.00,,,0.00,Wunderground v.1.15,2013-06-09 20:52:00,
2013-06-09 16:57:00,80.7,56.8,30.06,ENE,63,0.0,1.0,44,0.00,,,0.00,Wunderground v.1.15,2013-06-09 20:57:00,
2013-06-09 17:02:00,81.1,51.6,30.06,ENE,61,0.0,3.0,36,0.00,,,0.00,Wunderground v.1.15,2013-06-09 21:02:00,
2013-06-09 17:07:00,80.3,53.1,30.06,ENE,61,0.0,3.0,39,0.00,,,0.00,Wunderground v.1.15,2013-06-09 21:07:00,
2013-06-09 17:12:00,80.5,55.3,30.06,ENE,61,1.0,2.0,42,0.00,,,0.00,Wunderground v.1.15,2013-06-09 21:12:00,
2013-06-09 17:17:00,80.9,54.3,30.06,NE,54,0.0,6.0,40,0.00,,,0.00,Wunderground v.1.15,2013-06-09 21:17:00,
2013-06-09 17:22:00,81.1,55.2,30.06,NE,54,1.0,1.0,41,0.00,,,0.00,Wunderground v.1.15,2013-06-09 21:22:00,
2013-06-09 17:27:00,80.7,52.0,30.06,NE,54,0.0,3.0,37,0.00,,,0.00,Wunderground v.1.15,2013-06-09 21:27:00,
2013-06-09 17:32:00,80.3,52.4,30.06,NE,54,0.0,2.0,38,0.00,,,0.00,Wunderground v.1.15,2013-06-09 21:32:00,
2013-06-09 17:38:00,80.1,52.2,30.06,NE,51,2.0,5.0,38,0.00,,,0.00,Wunderground v.1.15,2013-06-09 21:38:00,
2013-06-09 17:43:00,79.8,53.3,30.06,NE,51,0.0,1.0,40,0.00,,,0.00,Wunderground v.1.15,2013-06-09 21:43:00,
2013-06-09 17:48:00,79.8,52.6,30.06,NE,51,0.0,1.0,39,0.00,,,0.00,Wunderground v.1.15,2013-06-09 21:48:00,
2013-06-09 17:53:00,79.8,54.7,30.06,NE,51,0.0,1.0,42,0.00,,,0.00,Wunderground v.1.15,2013-06-09 21:53:00,
2013-06-09 17:58:00,80.1,52.2,30.06,NE,51,0.0,2.0,38,0.00,,,0.00,Wunderground v.1.15,2013-06-09 21:58:00,
2013-06-09 18:03:00,80.3,52.4,30.06,NE,51,0.0,2.0,38,0.00,,,0.00,Wunderground v.1.15,2013-06-09 22:03:00,
2013-06-09 18:08:00,80.5,53.3,30.06,NE,51,1.0,4.0,39,0.00,,,0.00,Wunderground v.1.15,2013-06-09 22:08:00,
2013-06-09 18:13:00,80.3,52.4,30.07,NE,51,0.0,3.0,38,0.00,,,0.00,Wunderground v.1.15,2013-06-09 22:13:00,
2013-06-09 18:18:00,79.6,55.1,30.07,NE,51,0.0,3.0,43,0.00,,,0.00,Wunderground v.1.15,2013-06-09 22:18:00,
2013-06-09 18:23:00,79.2,54.8,30.07,NE,51,0.0,1.0,43,0.00,,,0.00,Wunderground v.1.15,2013-06-09 22:23:00,
2013-06-09 18:28:00,79.2,56.0,30.07,NE,51,0.0,1.0,45,0.00,,,0.00,Wunderground v.1.15,2013-06-09 22:28:00,
2013-06-09 18:33:00,79.0,54.6,30.07,NE,51,0.0,0.0,43,0.00,,,0.00,Wunderground v.1.15,2013-06-09 22:33:00,
2013-06-09 18:39:00,78.8,55.7,30.07,NE,51,0.0,1.0,45,0.00,,,0.00,Wunderground v.1.15,2013-06-09 22:39:00,
2013-06-09 18:44:00,78.8,56.9,30.07,NE,51,0.0,0.0,47,0.00,,,0.00,Wunderground v.1.15,2013-06-09 22:44:00,
2013-06-09 18:49:00,79.2,54.8,30.07,NE,51,0.0,1.0,43,0.00,,,0.00,Wunderground v.1.15,2013-06-09 22:49:00,
2013-06-09 18:54:00,79.4,54.3,30.07,NE,51,0.0,1.0,42,0.00,,,0.00,Wunderground v.1.15,2013-06-09 22:54:00,
2013-06-09 18:59:00,79.4,54.3,30.08,NE,51,0.0,1.0,42,0.00,,,0.00,Wunderground v.1.15,2013-06-09 22:59:00,
2013-06-09 19:04:00,79.6,55.8,30.08,NE,51,0.0,0.0,44,0.00,,,0.00,Wunderground v.1.15,2013-06-09 23:04:00,
2013-06-09 19:09:00,79.8,53.3,30.08,NE,51,0.0,1.0,40,0.00,,,0.00,Wunderground v.1.15,2013-06-09 23:09:00,
2013-06-09 19:14:00,79.8,54.0,30.08,NE,51,0.0,0.0,41,0.00,,,0.00,Wunderground v.1.15,2013-06-09 23:14:00,
2013-06-09 19:19:00,79.8,54.0,30.08,NE,51,0.0,1.0,41,0.00,,,0.00,Wunderground v.1.15,2013-06-09 23:19:00,
2013-06-09 19:24:00,79.6,53.8,30.08,NE,51,0.0,1.0,41,0.00,,,0.00,Wunderground v.1.15,2013-06-09 23:24:00,
2013-06-09 19:29:00,79.0,53.3,30.08,NE,51,0.0,1.0,41,0.00,,,0.00,Wunderground v.1.15,2013-06-09 23:29:00,
2013-06-09 19:34:00,78.8,54.4,30.08,NE,51,0.0,0.0,43,0.00,,,0.00,Wunderground v.1.15,2013-06-09 23:34:00,
2013-06-09 19:39:00,78.8,56.3,30.08,NE,51,0.0,0.0,46,0.00,,,0.00,Wunderground v.1.15,2013-06-09 23:39:00,
2013-06-09 19:44:00,78.6,57.8,30.08,NE,51,0.0,0.0,49,0.00,,,0.00,Wunderground v.1.15,2013-06-09 23:44:00,
2013-06-09 19:49:00,78.3,58.1,30.08,NE,51,0.0,0.0,50,0.00,,,0.00,Wunderground v.1.15,2013-06-09 23:49:00,
2013-06-09 19:54:00,78.1,57.9,30.08,NE,51,0.0,0.0,50,0.00,,,0.00,Wunderground v.1.15,2013-06-09 23:54:00,
2013-06-09 19:59:00,77.6,56.4,30.09,NE,51,0.0,0.0,48,0.00,,,0.00,Wunderground v.1.15,2013-06-09 23:59:00,
2013-06-09 20:04:00,76.7,55.5,30.09,NE,51,0.0,0.0,48,0.00,,,0.00,Wunderground v.1.15,2013-06-10 00:04:00,
2013-06-09 20:09:00,75.8,55.8,30.09,NE,51,0.0,0.0,50,0.00,,,0.00,Wunderground v.1.15,2013-06-10 00:09:00,
2013-06-09 20:14:00,74.7,55.4,30.09,NE,51,0.0,0.0,51,0.00,,,0.00,Wunderground v.1.15,2013-06-10 00:14:00,
2013-06-09 20:19:00,73.5,55.3,30.09,NE,51,0.0,0.0,53,0.00,,,0.00,Wunderground v.1.15,2013-06-10 00:19:00,
2013-06-09 20:24:00,72.5,54.9,30.09,NE,51,0.0,0.0,54,0.00,,,0.00,Wunderground v.1.15,2013-06-10 00:24:00,
2013-06-09 20:29:00,71.3,53.8,30.09,NE,51,0.0,0.0,54,0.00,,,0.00,Wunderground v.1.15,2013-06-10 00:29:00,
2013-06-09 20:34:00,70.4,54.4,30.09,NE,51,0.0,0.0,57,0.00,,,0.00,Wunderground v.1.15,2013-06-10 00:34:00,
2013-06-09 20:39:00,69.4,54.0,30.09,NE,51,0.0,0.0,58,0.00,,,0.00,Wunderground v.1.15,2013-06-10 00:39:00,
2013-06-09 20:44:00,68.6,53.7,30.10,NE,51,0.0,0.0,59,0.00,,,0.00,Wunderground v.1.15,2013-06-10 00:44:00,
2013-06-09 20:49:00,68.1,54.1,30.10,NE,51,0.0,0.0,61,0.00,,,0.00,Wunderground v.1.15,2013-06-10 00:49:00,
2013-06-09 20:54:00,67.3,53.8,30.10,NE,51,0.0,0.0,62,0.00,,,0.00,Wunderground v.1.15,2013-06-10 00:54:00,
2013-06-09 20:59:00,66.9,53.9,30.11,NE,51,0.0,0.0,63,0.00,,,0.00,Wunderground v.1.15,2013-06-10 00:59:00,
2013-06-09 21:04:00,66.6,54.0,30.11,NE,51,0.0,0.0,64,0.00,,,0.00,Wunderground v.1.15,2013-06-10 01:04:00,
2013-06-09 21:09:00,66.3,54.2,30.11,NE,51,0.0,0.0,65,0.00,,,0.00,Wunderground v.1.15,2013-06-10 01:09:00,
2013-06-09 21:14:00,65.8,54.9,30.11,NE,51,0.0,0.0,68,0.00,,,0.00,Wunderground v.1.15,2013-06-10 01:14:00,
2013-06-09 21:20:00,65.3,55.3,30.11,NE,51,0.0,0.0,70,0.00,,,0.00,Wunderground v.1.15,2013-06-10 01:20:00,
2013-06-09 21:25:00,64.5,54.9,30.11,NE,51,0.0,0.0,71,0.00,,,0.00,Wunderground v.1.15,2013-06-10 01:25:00,
2013-06-09 21:30:00,63.7,54.1,30.12,NE,51,0.0,0.0,71,0.00,,,0.00,Wunderground v.1.15,2013-06-10 01:30:00,
2013-06-09 21:35:00,63.4,53.8,30.12,NE,51,0.0,0.0,71,0.00,,,0.00,Wunderground v.1.15,2013-06-10 01:35:00,
2013-06-09 21:40:00,62.7,53.9,30.12,NE,51,0.0,0.0,73,0.00,,,0.00,Wunderground v.1.15,2013-06-10 01:40:00,
2013-06-09 21:45:00,62.3,54.3,30.13,NE,51,0.0,0.0,75,0.00,,,0.00,Wunderground v.1.15,2013-06-10 01:45:00,
2013-06-09 21:50:00,62.1,54.4,30.13,NE,51,0.0,0.0,76,0.00,,,0.00,Wunderground v.1.15,2013-06-10 01:50:00,
2013-06-09 21:55:00,62.0,54.7,30.13,NE,51,0.0,0.0,77,0.00,,,0.00,Wunderground v.1.15,2013-06-10 01:55:00,
2013-06-09 22:01:00,61.5,54.9,30.13,NE,51,1.0,1.0,79,0.00,,,0.00,Wunderground v.1.15,2013-06-10 02:01:00,
2013-06-09 22:06:00,61.2,54.6,30.13,NE,51,0.0,2.0,79,0.00,,,0.00,Wunderground v.1.15,2013-06-10 02:06:00,
2013-06-09 22:11:00,60.9,55.0,30.13,NE,51,0.0,0.0,81,0.00,,,0.00,Wunderground v.1.15,2013-06-10 02:11:00,
2013-06-09 22:16:00,60.7,55.2,30.14,NE,51,0.0,0.0,82,0.00,,,0.00,Wunderground v.1.15,2013-06-10 02:16:00,
2013-06-09 22:22:00,60.4,55.2,30.14,NE,51,0.0,0.0,83,0.00,,,0.00,Wunderground v.1.15,2013-06-10 02:22:00,
2013-06-09 22:26:00,60.2,55.7,30.14,NE,51,0.0,0.0,85,0.00,,,0.00,Wunderground v.1.15,2013-06-10 02:26:00,
2013-06-09 22:32:00,60.5,56.0,30.14,NE,51,0.0,2.0,85,0.00,,,0.00,Wunderground v.1.15,2013-06-10 02:32:00,
2013-06-09 22:37:00,61.0,56.1,30.14,NE,51,0.0,2.0,84,0.00,,,0.00,Wunderground v.1.15,2013-06-10 02:37:00,
2013-06-09 22:42:00,61.2,56.0,30.15,NE,51,0.0,0.0,83,0.00,,,0.00,Wunderground v.1.15,2013-06-10 02:42:00,
2013-06-09 22:47:00,60.9,55.7,30.15,NE,51,0.0,0.0,83,0.00,,,0.00,Wunderground v.1.15,2013-06-10 02:47:00,
2013-06-09 22:52:00,60.4,55.2,30.15,NE,51,0.0,0.0,83,0.00,,,0.00,Wunderground v.1.15,2013-06-10 02:52:00,
2013-06-09 22:57:00,59.9,55.1,30.15,NE,51,0.0,0.0,84,0.00,,,0.00,Wunderground v.1.15,2013-06-10 02:57:00,
2013-06-09 23:02:00,59.6,55.1,30.15,NE,51,0.0,0.0,85,0.00,,,0.00,Wunderground v.1.15,2013-06-10 03:02:00,
2013-06-09 23:07:00,59.5,55.3,30.15,NE,51,0.0,0.0,86,0.00,,,0.00,Wunderground v.1.15,2013-06-10 03:07:00,
2013-06-09 23:12:00,59.0,54.8,30.16,NE,51,0.0,0.0,86,0.00,,,0.00,Wunderground v.1.15,2013-06-10 03:12:00,
2013-06-09 23:17:00,58.7,54.8,30.16,NE,51,0.0,0.0,87,0.00,,,0.00,Wunderground v.1.15,2013-06-10 03:17:00,
2013-06-09 23:22:00,58.6,55.1,30.16,NE,51,0.0,0.0,88,0.00,,,0.00,Wunderground v.1.15,2013-06-10 03:22:00,
2013-06-09 23:27:00,58.3,54.8,30.16,NE,51,0.0,0.0,88,0.00,,,0.00,Wunderground v.1.15,2013-06-10 03:27:00,
2013-06-09 23:32:00,58.0,54.5,30.16,NE,51,0.0,0.0,88,0.00,,,0.00,Wunderground v.1.15,2013-06-10 03:32:00,
2013-06-09 23:37:00,57.8,54.6,30.16,NE,51,0.0,0.0,89,0.00,,,0.00,Wunderground v.1.15,2013-06-10 03:37:00,
2013-06-09 23:42:00,57.6,54.4,30.16,NE,51,0.0,0.0,89,0.00,,,0.00,Wunderground v.1.15,2013-06-10 03:42:00,
2013-06-09 23:47:00,57.5,54.6,30.16,NE,51,0.0,0.0,90,0.00,,,0.00,Wunderground v.1.15,2013-06-10 03:47:00,
2013-06-09 23:52:00,57.3,54.7,30.16,NE,51,0.0,0.0,91,0.00,,,0.00,Wunderground v.1.15,2013-06-10 03:52:00,
2013-06-09 23:57:00,57.0,54.4,30.16,NE,51,0.0,0.0,91,0.00,,,0.00,Wunderground v.1.15,2013-06-10 03:57:00,